NOAA 16 DEB, 42357

Orbit data source: Space-Track

NOAA 16 DEB, 42357 is space debris in SSO originally from a launch on Thu, 21 Sep 2000 UTC launched from the Air Force Western Test Range (AFWTR). Debris objects in space refer to the collection of defunct objects orbiting the Earth. Examples of debris include non-operational satellites, rocket bodies, and fragments generated from explosions, collisions, or faulty payload assembly.

Loading next visibility...
Identifier
42357, 2000-055QZ
Orbit
SSO
Country
Flag of USUS
Related business
Manufacturer
Unknown
Mission
Spacecraft
Bus & Motor
Unknown
Mass
Unknown
Launch date (UTC)
2000-09-21 (25 years ago)
Launch vehicle
Unknown
Launch site
Air Force Western Test Range (AFWTR)
Object type
Payload
Rocket body
Debris
Shape & HBR
Unknown shape, 0.1 m
Radar Cross Section
Small (<0.1 m²)

Expand to show TLE details & history
Last TLE update: 1 day ago

TLE from 1 day ago
0 NOAA 16 DEB
1 42357U 00055QZ  26033.30639544  .00039848  00000-0  60066-2 0  9991
2 42357  98.8010 169.1208 0004541 141.8898 218.2630 14.74209919517808
Epoch: 2026-02-02T07:21Z
TLE epoch observation values (Epoch: 2026-02-02T07:21:12.566Z)
Latitude
0.00002°
Longitude
-73.68513°
Altitude
653.152 km
Speed
7.53 km/s
True Right ascension
11h 16m 28s
True Declination
0° 00' 00"
Sunlit
Object was in full shadow at epoch
Visualization orbit readout
Latitude
Unknown
Longitude
Unknown
Altitude
Unknown
Speed
Unknown
Apparent Right ascension
Unknown
Apparent Declination
Unknown
Sunlit
N/A
Visualization observer readout
Local Sidereal Time
13:45:11
Azimuth
Unknown
Elevation
Unknown
Doppler factor
Unknown
Orbital elements
Apogee altitude
647.941 km
Perigee altitude
641.562 km
Semi-major axis
7,022.888 km
Eccentricity
0.00045
Inclination
98.801°
RAAN
169.1208°
Arg. of periapsis
141.8898°
True anomaly
218.23079°
Mean anomaly
218.263°
Eccentric anomaly
218.24689°
Mean motion
3.68782 °/min
Orbital period
97.62 mins
BSTAR
0.0060066
Loading maneuver chart data...
Computing Atmospheric mass density...
Loading historical data...
Loading historical data...
Loading historical data...
Loading historical data...
Loading historical data...
Loading historical data...
Loading historical data...

Documentation

Showing up to 5 results
|